Find Local Weather

World > North America > United States > Iowa

Glenwood, Iowa Regional Weather

Lat: 41.05N, Lon: 95.74W
Wx Zone: IAZ079
Feedback
Expires:201812121300;;677369
ASUS43 KDMX 121201
RWRIA 

WEATHER ROUNDUP FOR IOWA
NATIONAL WEATHER SERVICE DES MOINES IA
600 AM CST WED DEC 12 2018

NOTE: "FAIR" INDICATES FEW OR NO CLOUDS BELOW 12,000 FEET WITH NO
SIGNIFICANT WEATHER AND/OR OBSTRUCTIONS TO VISIBILITY.

* - THESE STATIONS ARE NOT NWS STATIONS...THUS NOT UNDER NWS
QUALITY CONTROL.  THEY ALSO DO NOT REPORT WEATHER SUCH 
AS PRECIPITATION OR FOG.  


IAZ055>058-069>071-079>083-090>094-121300-
   SOUTHWEST IOWA
  
CITY           SKY/WX    TMP DP  RH WIND       PRES   REMARKS
ATLANTIC *     FOG       32  32 100 W8        29.81S VSB 1   WCI  25  
AUDUBON *      CLOUDY    30  28  93 CALM      29.79R FOG              
CLARINDA *     CLOUDY    28  27  93 SW3       29.88S                  
COUNCIL BLFS * CLOUDY    25  27 100 SW7       29.82S WCI  17          
CRESTON *      FOG       28  28 100 W10       29.82S VSB 1/4 WCI  19  
HARLAN  *        N/A    N/A N/A N/A MISG        N/A                   
LAMONI         CLEAR     27  23  85 W13       29.82S WCI  16          
6HR MIN TEMP:  27; 6HR MAX TEMP:  33;                                

RED OAK *      MOCLDY    28  28 100 S7        29.84S WCI  21          
SHENANDOAH *   CLOUDY    23  23 100 S5        29.86F FOG     WCI  17  
$$
 

SKY/WX - Weather  TMP - Temperature  DP - Dew Point  RH - Relative Humidity
WIND - Wind Direction/Speed PRES - Barometric Pressure